Weather in Lisie Gori

Russia / Saratov Oblast     51°32′43″N   44°50′04″E
temp.,
°C
wind,
m/s
gust,
m/s
humid.,
%
clouds,
%
prec.,
mm/h
press.,
hPa
HPBL,
m
18 september, sat
sat1801:00+8ene2553100 0.0 1018266
04:00+8ene255399 0.1 1019299
07:00+7ne345462 0.0 1020182
10:00+9ne5547100 0.0 1021878
13:00+13ene4434100 0.0 10211364
16:00+14ene3330100 0.0 10201475
19:00+11ene2234100 0.0 102033
22:00+9ene2442100 0.0 102277
19 september, sun
sun1901:00+9ene3744100 0.0 1022225
04:00+7e5106180 0.0 1022303
07:00+6ese5106599 0.0 1023335
10:00+8ese61056100 0.0 1023427
13:00+10ese71048100 0.0 1022549
16:00+14ese7835100 0.0 10201104
19:00+13e61036100 0.0 1020444
22:00+13ese81437100 0.1 1018652
20 september, mon
mon2001:00+11ese81650100 0.4 1018567
04:00+11se81642100 0.4 1016811
07:00+7se81686100 4.1 1017627
10:00+7ese81687100 11.8 1017719
13:00+7ese81583100 2.4 1017602
16:00+8ese81582100 3.1 1016608
19:00+9ese81586100 0.6 1015604
22:00+9ese71483100 3.8 1015467
21 september, tue
tue2101:00+10ese7157832 0.0 1014386
04:00+9ese5118985 0.0 1013219
07:00+9se498512 0.1 1013183
10:00+15sse466771 0.1 1013367
13:00+19s475658 0.0 1012967
16:00+19ssw576197 0.8 1011848
19:00+14sw2498100 2.9 1011252
22:00+13w2593100 4.4 1011264
22 september, wed
wed2201:00+13wnw1189100 0.1 101111
04:00+9wnw348629 0.1 101173
07:00+8wnw228898 0.0 101146
10:00+10wnw3582100 0.1 1012353
13:00+12wsw236466 0.1 1012719
16:00+13sw4559100 0.4 10121226
19:00+10sw3677100 0.1 1013351
22:00+8w358716 0.1 1015106